Location: Aciu?a
(46.2833°N, 22.4500°E)
Time: 05:58:50
(UTC+00:00)

CZ-4 R/B - Pass Details

Date: 25 October 2021
Orbit: 531 x 595 km, 97.8° (Epoch: 04 December)

Event Time Altitude Azimuth Distance (km) Brightness Sun altitude
Exits shadow 16:25:10 - 137° (SE) 2,649 4.5 -10.8°
Reaches altitude 10° 16:27:14 10° 126° (SE) 1,869 3.6 -11.1°
Maximum altitude 16:30:43 28° 67° (ENE) 1,091 2.3 -11.7°
Drops below altitude 10° 16:34:16 10° 8° (N) 1,913 3.9 -12.3°
Sets 16:36:40 0° 357° (N) 2,828 4.9 -12.7°
